HUNTER4 EPNA-EPNA

Flight info

Callsign HUNTER4
Flight time 0h 6m
Altitude 2000
Route TRAFFIC PATERNS
Aircraft AH64/L-SBDGRY/C

Departure

Time 2026-04-15 17:16
Airport Nadarzyce Air Base (EPNA)

Arrival

Time 2026-04-15 17:23
Airport Nadarzyce Air Base (EPNA)
Time Latitude Longitude Altitude Speed Heading
2026-04-15 17:13 53.44672 16.49037 405 ft 0 kts 284°
2026-04-15 17:16 53.44675 16.49045 409 ft 5 kts 355°
2026-04-15 17:16 53.44609 16.49125 447 ft 18 kts 89°
2026-04-15 17:16 53.44768 16.49293 454 ft 62 kts 345°
2026-04-15 17:16 53.45311 16.49078 571 ft 84 kts 350°
2026-04-15 17:17 53.45946 16.48838 743 ft 98 kts 347°
2026-04-15 17:17 53.46436 16.49357 872 ft 106 kts 74°
2026-04-15 17:17 53.46587 16.50584 1049 ft 109 kts 74°
2026-04-15 17:17 53.46977 16.51447 1236 ft 90 kts 360°
2026-04-15 17:18 53.47439 16.50922 1189 ft 106 kts 274°
2026-04-15 17:18 53.47119 16.49751 1065 ft 116 kts 210°
2026-04-15 17:18 53.46370 16.49947 1081 ft 114 kts 154°
2026-04-15 17:18 53.45641 16.50390 1187 ft 109 kts 158°
2026-04-15 17:19 53.44924 16.50593 1317 ft 102 kts 197°
2026-04-15 17:19 53.44574 16.49545 1115 ft 101 kts 293°
2026-04-15 17:19 53.45116 16.49162 1239 ft 92 kts 345°
2026-04-15 17:19 53.45800 16.48897 1211 ft 108 kts 344°
2026-04-15 17:20 53.46540 16.48746 1220 ft 109 kts 27°
2026-04-15 17:20 53.46726 16.50018 1086 ft 116 kts 100°
2026-04-15 17:20 53.46043 16.50543 1014 ft 113 kts 169°
2026-04-15 17:20 53.45277 16.50818 1071 ft 111 kts 167°
2026-04-15 17:21 53.44563 16.50666 1133 ft 104 kts 227°
2026-04-15 17:21 53.44461 16.49529 1062 ft 102 kts 308°
2026-04-15 17:21 53.45126 16.49163 1091 ft 105 kts 345°
2026-04-15 17:21 53.45850 16.48842 1140 ft 107 kts 342°
2026-04-15 17:22 53.46537 16.48303 1139 ft 112 kts 308°
2026-04-15 17:22 53.46811 16.47014 996 ft 123 kts 292°
2026-04-15 17:22 53.47202 16.45804 957 ft 110 kts 300°
2026-04-15 17:22 53.47482 16.44902 1008 ft 53 kts 294°
2026-04-15 17:23 53.47570 16.44712 962 ft 4 kts 301°
2026-04-15 17:23 53.47532 16.44682 938 ft 11 kts 306°
2026-04-15 17:23 53.47463 16.44605 935 ft 13 kts 306°
2026-04-15 17:23 53.47387 16.44524 935 ft 13 kts 305°
2026-04-15 17:24 53.47306 16.44445 935 ft 14 kts 306°
2026-04-15 17:24 53.47225 16.44361 937 ft 14 kts 305°
2026-04-15 17:24 53.47143 16.44277 938 ft 14 kts 305°
2026-04-15 17:24 53.47138 16.44125 911 ft 34 kts 314°
2026-04-15 17:25 53.47314 16.44002 907 ft 55 kts 337°
2026-04-15 17:25 53.47590 16.44039 915 ft 68 kts 18°
2026-04-15 17:25 53.47773 16.44351 921 ft 74 kts 58°
2026-04-15 17:26 53.47817 16.44888 916 ft 82 kts 94°
2026-04-15 17:26 53.47686 16.45374 910 ft 93 kts 123°
2026-04-15 17:27 53.47396 16.45874 921 ft 94 kts 131°
2026-04-15 17:27 53.47068 16.46423 951 ft 33 kts 126°
2026-04-15 17:27 53.46975 16.46446 901 ft 5 kts 137°
2026-04-15 17:27 53.46975 16.46531 893 ft 9 kts 139°
2026-04-15 17:28 53.46870 16.46350 770 ft 47 kts 231°
2026-04-15 17:28 53.46905 16.45728 795 ft 64 kts 295°
2026-04-15 17:28 53.47102 16.45086 743 ft 62 kts 297°
2026-04-15 17:28 53.47304 16.44447 721 ft 62 kts 297°
2026-04-15 17:29 53.47507 16.43815 718 ft 62 kts 297°
2026-04-15 17:29 53.47708 16.43181 715 ft 61 kts 297°
2026-04-15 17:29 53.47905 16.42543 711 ft 61 kts 297°
2026-04-15 17:29 53.48197 16.42225 638 ft 56 kts 41°
2026-04-15 17:30 53.48144 16.42921 501 ft 73 kts 105°
2026-04-15 17:30 53.47906 16.43234 474 ft 21 kts 115°
2026-04-15 17:30 53.47801 16.43426 485 ft 42 kts 126°
2026-04-15 17:30 53.47496 16.43750 685 ft 24 kts 95°
2026-04-15 17:31 53.47565 16.43968 609 ft 32 kts 78°
2026-04-15 17:31 53.47307 16.44407 582 ft 84 kts 134°
2026-04-15 17:31 53.47366 16.45025 657 ft 74 kts 349°
2026-04-15 17:31 53.47840 16.45030 647 ft 72 kts 22°
2026-04-15 17:32 53.47699 16.45277 576 ft 67 kts 222°
2026-04-15 17:32 53.47683 16.44835 589 ft 44 kts 281°
2026-04-15 17:32 53.47625 16.44260 622 ft 36 kts 295°
2026-04-15 17:32 53.47697 16.44175 586 ft 0 kts 294°
2026-04-15 17:33 53.47658 16.44143 570 ft 11 kts 297°
2026-04-15 17:33 53.47613 16.44080 516 ft 11 kts 309°
2026-04-15 17:33 53.47659 16.44275 569 ft 33 kts 96°
2026-04-15 17:33 53.47522 16.44710 685 ft 42 kts 187°
2026-04-15 17:34 53.47051 16.44289 667 ft 91 kts 201°
2026-04-15 17:34 53.46658 16.44436 928 ft 43 kts 32°
2026-04-15 17:34 53.46902 16.44709 650 ft 23 kts 21°
2026-04-15 17:34 53.47050 16.44806 625 ft 15 kts 311°
2026-04-15 17:35 53.47090 16.44856 619 ft 41 kts 56°
2026-04-15 17:35 53.46971 16.45432 550 ft 63 kts 189°
2026-04-15 17:35 53.46962 16.45387 555 ft 26 kts 310°
2026-04-15 17:35 53.47294 16.45053 592 ft 78 kts 340°
2026-04-15 17:36 53.47742 16.44531 751 ft 70 kts 331°
2026-04-15 17:36 53.48139 16.44985 828 ft 100 kts 53°
2026-04-15 17:36 53.48750 16.45079 663 ft 118 kts 316°
2026-04-15 17:36 53.48817 16.44806 533 ft 16 kts 11°
2026-04-15 17:37 53.48789 16.44398 518 ft 46 kts 354°
2026-04-15 17:37 53.48799 16.44013 526 ft 24 kts 340°
2026-04-15 17:37 53.48850 16.43949 520 ft 2 kts 352°
2026-04-15 17:37 53.48833 16.43885 516 ft 10 kts 353°
2026-04-15 17:38 53.48813 16.43749 520 ft 13 kts 352°
2026-04-15 17:38 53.48795 16.43613 519 ft 12 kts 352°
2026-04-15 17:38 53.48779 16.43481 519 ft 12 kts 352°
2026-04-15 17:38 53.48798 16.43563 552 ft 51 kts 68°
2026-04-15 17:39 53.48678 16.44240 577 ft 60 kts 111°
2026-04-15 17:39 53.48394 16.44750 547 ft 61 kts 135°
2026-04-15 17:39 53.48004 16.45041 538 ft 62 kts 160°
2026-04-15 17:39 53.47575 16.45045 536 ft 62 kts 185°
2026-04-15 17:40 53.47183 16.44761 540 ft 60 kts 209°
2026-04-15 17:40 53.46998 16.44517 551 ft 9 kts 212°
2026-04-15 17:40 53.46967 16.44518 531 ft 12 kts 216°
2026-04-15 17:40 53.46891 16.44607 535 ft 14 kts 214°
2026-04-15 17:41 53.46813 16.44703 534 ft 14 kts 214°
2026-04-15 17:41 53.46738 16.44801 535 ft 14 kts 214°
2026-04-15 17:41 53.46660 16.44900 535 ft 14 kts 214°
2026-04-15 17:41 53.46585 16.44997 534 ft 14 kts 214°
2026-04-15 17:42 53.46508 16.45095 535 ft 14 kts 214°
2026-04-15 17:42 53.46431 16.45193 534 ft 14 kts 214°
2026-04-15 17:42 53.46352 16.45291 534 ft 14 kts 214°
2026-04-15 17:42 53.46273 16.45390 535 ft 14 kts 214°
2026-04-15 17:43 53.46195 16.45491 533 ft 14 kts 214°
2026-04-15 17:43 53.46119 16.45593 534 ft 14 kts 214°
2026-04-15 17:43 53.46041 16.45696 533 ft 14 kts 214°
2026-04-15 17:43 53.45965 16.45801 532 ft 14 kts 213°
2026-04-15 17:44 53.45887 16.45905 533 ft 14 kts 213°
2026-04-15 17:44 53.45939 16.45873 622 ft 32 kts 247°
2026-04-15 17:44 53.46227 16.45541 903 ft 67 kts 277°
2026-04-15 17:44 53.46211 16.44634 1256 ft 67 kts 268°
2026-04-15 17:45 53.46233 16.43846 1687 ft 72 kts 287°
2026-04-15 17:45 53.46601 16.43280 817 ft 73 kts 347°
2026-04-15 17:45 53.47161 16.43087 694 ft 82 kts 343°
2026-04-15 17:45 53.47694 16.42720 582 ft 80 kts 328°
2026-04-15 17:46 53.48164 16.42769 543 ft 73 kts 22°
2026-04-15 17:46 53.48621 16.43369 481 ft 93 kts 39°
2026-04-15 17:46 53.49212 16.43947 501 ft 51 kts 104°
2026-04-15 17:46 53.49012 16.43827 511 ft 72 kts 196°
2026-04-15 17:47 53.48526 16.43191 500 ft 103 kts 219°
2026-04-15 17:47 53.48110 16.42722 502 ft 114 kts 205°
2026-04-15 17:47 53.47408 16.43039 589 ft 108 kts 130°
2026-04-15 17:47 53.46885 16.44220 772 ft 74 kts 165°
2026-04-15 17:48 53.46565 16.44121 880 ft 68 kts 212°
2026-04-15 17:48 53.46463 16.43464 1227 ft 30 kts 267°
2026-04-15 17:48 53.46624 16.43116 1332 ft 62 kts 317°
2026-04-15 17:48 53.47104 16.42248 654 ft 133 kts 299°
2026-04-15 17:49 53.47260 16.41117 1070 ft 56 kts 216°
2026-04-15 17:49 53.46935 16.41232 1180 ft 81 kts 118°
2026-04-15 17:49 53.46496 16.42339 696 ft 129 kts 117°
2026-04-15 17:49 53.46005 16.43152 1278 ft 72 kts 178°
2026-04-15 17:50 53.45730 16.42900 1914 ft 39 kts 227°
2026-04-15 17:50 53.45843 16.42509 2241 ft 46 kts 307°
2026-04-15 17:50 53.46176 16.42327 2617 ft 59 kts 358°
2026-04-15 17:50 53.46608 16.42647 3002 ft 56 kts 32°
2026-04-15 17:51 53.46946 16.43016 3407 ft 65 kts 27°
2026-04-15 17:51 53.46668 16.43607 2797 ft 125 kts 218°
2026-04-15 17:51 53.46811 16.42212 2359 ft 157 kts 301°
2026-04-15 17:51 53.47459 16.40537 1949 ft 176 kts 297°
2026-04-15 17:52 53.48056 16.38834 1796 ft 171 kts 309°
2026-04-15 17:52 53.48824 16.37555 2136 ft 141 kts 300°
2026-04-15 17:52 53.48598 16.36787 3030 ft 80 kts 175°
2026-04-15 17:52 53.48301 16.37529 3355 ft 97 kts 120°
2026-04-15 17:53 53.48214 16.37823 1378 ft 43 kts 122°
2026-04-15 17:53 53.47835 16.38381 1327 ft 106 kts 136°
2026-04-15 17:53 53.47458 16.39507 1200 ft 122 kts 89°
2026-04-15 17:53 53.47458 16.40939 1151 ft 127 kts 85°
2026-04-15 17:54 53.47189 16.42338 1281 ft 116 kts 89°
2026-04-15 17:54 53.47644 16.43524 706 ft 136 kts 41°
2026-04-15 17:54 53.48069 16.44569 787 ft 86 kts 345°
2026-04-15 17:54 53.48446 16.44421 635 ft 64 kts 130°
2026-04-15 17:55 53.48444 16.44007 572 ft 75 kts 308°
2026-04-15 17:55 53.48153 16.43710 662 ft 85 kts 122°
2026-04-15 17:55 53.48032 16.44717 803 ft 75 kts 95°
2026-04-15 17:55 53.47939 16.45541 999 ft 78 kts 100°
2026-04-15 17:56 53.47568 16.46226 983 ft 81 kts 120°
2026-04-15 17:56 53.47553 16.46324 679 ft 25 kts 190°
2026-04-15 17:56 53.47235 16.46736 599 ft 91 kts 128°
2026-04-15 17:56 53.46919 16.47536 588 ft 73 kts 98°
2026-04-15 17:57 53.46915 16.48301 618 ft 60 kts 88°
2026-04-15 17:57 53.46791 16.48896 582 ft 61 kts 135°
2026-04-15 17:57 53.46391 16.49061 531 ft 50 kts 163°
2026-04-15 17:57 53.46129 16.49133 599 ft 37 kts 164°
2026-04-15 17:58 53.45746 16.49298 619 ft 76 kts 162°
2026-04-15 17:58 53.45176 16.49558 582 ft 89 kts 162°
2026-04-15 17:58 53.44621 16.49915 637 ft 77 kts 158°
2026-04-15 17:58 53.44434 16.49440 463 ft 45 kts 328°
2026-04-15 17:59 53.44683 16.49334 413 ft 35 kts 344°
2026-04-15 17:59 53.44760 16.49309 406 ft 0 kts 344°
2026-04-15 17:59 53.44762 16.49308 406 ft 2 kts 344°
2026-04-15 17:59 53.44799 16.49290 407 ft 12 kts 343°
2026-04-15 18:00 53.44871 16.49253 399 ft 5 kts 308°
2026-04-15 18:00 53.44878 16.49225 406 ft 3 kts 262°
2026-04-15 18:00 53.44876 16.49208 410 ft 4 kts 255°
2026-04-15 18:00 53.44859 16.49117 409 ft 7 kts 252°
2026-04-15 18:01 53.44849 16.49066 406 ft 4 kts 252°
2026-04-15 18:01 53.44821 16.49017 405 ft 9 kts 182°
2026-04-15 18:01 53.44738 16.49013 405 ft 10 kts 180°
2026-04-15 18:01 53.44714 16.49013 405 ft 0 kts 180°
2026-04-15 18:04 53.44714 16.49012 416 ft 1 kts 181°
2026-04-15 18:04 53.44708 16.48995 540 ft 3 kts 188°
2026-04-15 18:04 53.44726 16.48949 750 ft 28 kts 332°
2026-04-15 18:04 53.45131 16.48796 842 ft 80 kts 351°
2026-04-15 18:05 53.45768 16.48526 972 ft 94 kts 346°
2026-04-15 18:05 53.46355 16.48608 984 ft 70 kts 54°
2026-04-15 18:05 53.46331 16.49275 865 ft 51 kts 117°
2026-04-15 18:05 53.45956 16.49420 1125 ft 78 kts 180°
2026-04-15 18:06 53.45163 16.49750 1019 ft 131 kts 157°
2026-04-15 18:06 53.44176 16.50250 631 ft 163 kts 162°
2026-04-15 18:06 53.43119 16.50802 656 ft 159 kts 160°
2026-04-15 18:06 53.42100 16.50851 664 ft 144 kts 226°
2026-04-15 18:07 53.42320 16.50134 734 ft 80 kts
2026-04-15 18:07 53.43087 16.49994 670 ft 131 kts 341°
2026-04-15 18:07 53.44024 16.49599 586 ft 142 kts 344°
2026-04-15 18:07 53.44929 16.49200 748 ft 95 kts 321°
2026-04-15 18:08 53.45652 16.48831 644 ft 129 kts 341°
2026-04-15 18:08 53.46357 16.48181 859 ft 93 kts 290°
2026-04-15 18:08 53.46665 16.47227 788 ft 96 kts 306°
2026-04-15 18:08 53.46761 16.46278 666 ft 60 kts 252°
2026-04-15 18:09 53.46793 16.45951 492 ft 4 kts 265°
2026-04-15 18:09 53.46767 16.45947 432 ft 3 kts 269°
2026-04-15 18:09 53.46765 16.45947 431 ft 0 kts 269°
2026-04-15 18:10 53.46857 16.45618 579 ft 36 kts 47°
2026-04-15 18:11 53.46591 16.45682 704 ft 57 kts 167°
2026-04-15 18:11 53.46291 16.45943 658 ft 49 kts 147°
2026-04-15 18:11 53.46072 16.46374 582 ft 49 kts 129°
2026-04-15 18:11 53.45953 16.46894 620 ft 46 kts 111°
2026-04-15 18:12 53.45884 16.47036 848 ft 21 kts 115°
2026-04-15 18:12 53.46094 16.47177 731 ft 35 kts 129°
2026-04-15 18:12 53.46089 16.47116 656 ft 47 kts 281°
2026-04-15 18:12 53.46296 16.46960 617 ft 41 kts 336°
2026-04-15 18:13 53.46567 16.46811 597 ft 38 kts 336°
2026-04-15 18:13 53.46818 16.46659 655 ft 39 kts 337°
2026-04-15 18:13 53.46944 16.46201 733 ft 48 kts 295°
2026-04-15 18:14 53.46637 16.45212 767 ft 47 kts 250°
2026-04-15 18:14 53.46558 16.44686 773 ft 47 kts 266°
2026-04-15 18:14 53.46368 16.44230 769 ft 53 kts 228°
2026-04-15 18:14 53.46011 16.44181 768 ft 53 kts 173°
2026-04-15 18:15 53.45703 16.44443 773 ft 48 kts 159°
2026-04-15 18:15 53.45390 16.44662 772 ft 49 kts 159°
2026-04-15 18:15 53.45080 16.44884 774 ft 48 kts 159°
2026-04-15 18:15 53.44773 16.45107 774 ft 48 kts 159°
2026-04-15 18:16 53.44464 16.45328 772 ft 48 kts 159°
2026-04-15 18:16 53.44155 16.45547 770 ft 48 kts 159°
2026-04-15 18:16 53.43847 16.45766 771 ft 48 kts 159°
2026-04-15 18:16 53.43538 16.45986 773 ft 48 kts 159°
2026-04-15 18:17 53.43228 16.46184 770 ft 49 kts 164°
2026-04-15 18:17 53.42887 16.46073 773 ft 52 kts 195°
2026-04-15 18:17 53.42633 16.45658 776 ft 51 kts 229°
2026-04-15 18:17 53.42555 16.45098 775 ft 49 kts 262°
2026-04-15 18:18 53.42661 16.44571 777 ft 48 kts 293°
2026-04-15 18:18 53.42912 16.44233 777 ft 46 kts 324°
2026-04-15 18:18 53.43205 16.44069 777 ft 43 kts 338°
2026-04-15 18:18 53.43484 16.43894 777 ft 43 kts 336°
2026-04-15 18:19 53.43763 16.43722 776 ft 43 kts 336°
2026-04-15 18:19 53.44051 16.43533 765 ft 47 kts 334°
2026-04-15 18:19 53.44336 16.43349 773 ft 44 kts 337°
2026-04-15 18:19 53.44619 16.43175 775 ft 43 kts 336°
2026-04-15 18:20 53.44903 16.42997 777 ft 43 kts 336°
2026-04-15 18:20 53.45187 16.42818 777 ft 44 kts 336°
2026-04-15 18:20 53.45470 16.42643 778 ft 43 kts 336°
2026-04-15 18:20 53.45755 16.42472 778 ft 43 kts 336°
2026-04-15 18:21 53.46040 16.42299 778 ft 44 kts 336°
2026-04-15 18:21 53.46325 16.42124 777 ft 44 kts 336°
2026-04-15 18:21 53.46637 16.42096 777 ft 46 kts 358°
2026-04-15 18:21 53.46912 16.42357 778 ft 47 kts 28°
2026-04-15 18:22 53.47067 16.42838 778 ft 48 kts 58°
2026-04-15 18:22 53.47051 16.43398 777 ft 49 kts 89°
2026-04-15 18:22 53.46858 16.43877 776 ft 51 kts 122°
2026-04-15 18:22 53.46544 16.44137 778 ft 50 kts 152°
2026-04-15 18:23 53.46216 16.44285 777 ft 49 kts 157°
2026-04-15 18:23 53.45894 16.44451 776 ft 48 kts 156°
2026-04-15 18:23 53.45573 16.44614 777 ft 49 kts 156°
2026-04-15 18:23 53.45248 16.44778 777 ft 49 kts 156°
2026-04-15 18:24 53.44924 16.44944 777 ft 48 kts 156°
2026-04-15 18:24 53.44604 16.45106 775 ft 48 kts 156°
2026-04-15 18:24 53.44282 16.45266 774 ft 48 kts 157°
2026-04-15 18:24 53.43964 16.45425 775 ft 48 kts 156°
2026-04-15 18:25 53.43642 16.45584 774 ft 49 kts 156°
2026-04-15 18:25 53.43320 16.45748 774 ft 49 kts 156°
2026-04-15 18:25 53.42979 16.45818 775 ft 52 kts 174°
2026-04-15 18:25 53.42659 16.45575 775 ft 51 kts 207°
2026-04-15 18:26 53.42464 16.45091 777 ft 50 kts 240°
2026-04-15 18:26 53.42452 16.44523 777 ft 49 kts 273°
2026-04-15 18:26 53.42616 16.44046 777 ft 48 kts 304°
2026-04-15 18:26 53.42901 16.43786 778 ft 46 kts 332°
2026-04-15 18:27 53.43191 16.43625 774 ft 43 kts 337°
2026-04-15 18:27 53.43470 16.43447 774 ft 43 kts 336°
2026-04-15 18:27 53.43752 16.43269 774 ft 43 kts 336°
2026-04-15 18:27 53.44034 16.43092 774 ft 43 kts 336°
2026-04-15 18:28 53.44318 16.42917 775 ft 43 kts 336°
2026-04-15 18:28 53.44597 16.42740 768 ft 43 kts 337°
2026-04-15 18:28 53.44879 16.42557 763 ft 43 kts 336°
2026-04-15 18:28 53.45160 16.42375 765 ft 44 kts 336°
2026-04-15 18:29 53.45443 16.42194 765 ft 43 kts 336°
2026-04-15 18:29 53.45726 16.42011 764 ft 44 kts 336°
2026-04-15 18:29 53.46037 16.41994 767 ft 46 kts
2026-04-15 18:29 53.46308 16.42280 767 ft 47 kts 31°
2026-04-15 18:30 53.46446 16.42777 768 ft 48 kts 63°
2026-04-15 18:30 53.46398 16.43335 769 ft 50 kts 96°
2026-04-15 18:30 53.46168 16.43775 768 ft 51 kts 130°
2026-04-15 18:30 53.45841 16.43973 769 ft 49 kts 156°
2026-04-15 18:31 53.45520 16.44136 765 ft 48 kts 156°
2026-04-15 18:31 53.45203 16.44307 768 ft 48 kts 156°
2026-04-15 18:31 53.44886 16.44474 768 ft 48 kts 156°
2026-04-15 18:31 53.44570 16.44640 767 ft 48 kts 156°
2026-04-15 18:32 53.44250 16.44807 765 ft 48 kts 156°
2026-04-15 18:32 53.43931 16.44972 762 ft 48 kts 157°
2026-04-15 18:32 53.43612 16.45143 765 ft 49 kts 156°
2026-04-15 18:32 53.43292 16.45311 763 ft 48 kts 157°
2026-04-15 18:33 53.42944 16.45298 768 ft 52 kts 184°
2026-04-15 18:33 53.42655 16.44961 768 ft 51 kts 219°
2026-04-15 18:33 53.42527 16.44420 769 ft 50 kts 254°
2026-04-15 18:33 53.42598 16.43882 768 ft 48 kts 287°
2026-04-15 18:34 53.42835 16.43504 767 ft 47 kts 320°
2026-04-15 18:34 53.43135 16.43331 766 ft 44 kts 338°
2026-04-15 18:34 53.43418 16.43152 763 ft 43 kts 336°
2026-04-15 18:34 53.43700 16.42970 763 ft 43 kts 336°
2026-04-15 18:35 53.43885 16.42851 761 ft 43 kts 336°
2026-04-15 18:35 53.44166 16.42669 764 ft 43 kts 336°
2026-04-15 18:35 53.44448 16.42489 764 ft 43 kts 336°
2026-04-15 18:35 53.44731 16.42310 763 ft 43 kts 336°
2026-04-15 18:36 53.45014 16.42128 766 ft 44 kts 336°
2026-04-15 18:36 53.45299 16.41944 763 ft 44 kts 336°
2026-04-15 18:36 53.45584 16.41762 767 ft 44 kts 336°
2026-04-15 18:36 53.45874 16.41595 761 ft 45 kts 341°
2026-04-15 18:37 53.46187 16.41688 764 ft 47 kts 11°
2026-04-15 18:37 53.46420 16.42056 764 ft 48 kts 42°
2026-04-15 18:37 53.46498 16.42592 766 ft 48 kts 74°
2026-04-15 18:37 53.46389 16.43126 764 ft 50 kts 107°
2026-04-15 18:38 53.46117 16.43485 768 ft 51 kts 142°
2026-04-15 18:38 53.45785 16.43640 770 ft 47 kts 158°
2026-04-15 18:38 53.45468 16.43801 768 ft 48 kts 156°
2026-04-15 18:38 53.45151 16.43964 769 ft 47 kts 156°
2026-04-15 18:39 53.44834 16.44126 766 ft 48 kts 156°
2026-04-15 18:39 53.44515 16.44287 763 ft 48 kts 157°
2026-04-15 18:39 53.44195 16.44452 765 ft 48 kts 157°
2026-04-15 18:39 53.43875 16.44618 766 ft 48 kts 156°
2026-04-15 18:40 53.43558 16.44781 765 ft 48 kts 156°
2026-04-15 18:40 53.43236 16.44949 764 ft 49 kts 156°
2026-04-15 18:40 53.42968 16.45268 760 ft 50 kts 130°
2026-04-15 18:40 53.42941 16.45828 759 ft 49 kts 86°
2026-04-15 18:41 53.43090 16.46303 761 ft 43 kts 68°
2026-04-15 18:41 53.43207 16.46779 762 ft 45 kts 69°
2026-04-15 18:41 53.43327 16.47256 764 ft 44 kts 69°
2026-04-15 18:41 53.43447 16.47735 761 ft 45 kts 70°
2026-04-15 18:42 53.43569 16.48217 763 ft 45 kts 69°
2026-04-15 18:42 53.43691 16.48694 761 ft 45 kts 69°
2026-04-15 18:42 53.43809 16.49167 760 ft 45 kts 69°
2026-04-15 18:42 53.43990 16.49550 769 ft 50 kts 19°
2026-04-15 18:43 53.44148 16.49498 746 ft 61 kts 356°
2026-04-15 18:43 53.44608 16.49361 543 ft 74 kts 342°
2026-04-15 18:43 53.45114 16.49154 426 ft 76 kts 345°
2026-04-15 18:44 53.45584 16.48969 413 ft 65 kts 346°
2026-04-15 18:44 53.45990 16.48807 413 ft 54 kts 349°
2026-04-15 18:44 53.46279 16.48707 623 ft 48 kts 356°
2026-04-15 18:44 53.46551 16.49194 760 ft 83 kts 83°
2026-04-15 18:45 53.46448 16.50097 883 ft 94 kts 142°
2026-04-15 18:45 53.45754 16.50359 945 ft 103 kts 168°
2026-04-15 18:45 53.45006 16.50477 944 ft 117 kts 179°
2026-04-15 18:45 53.44239 16.50503 1090 ft 110 kts 198°
2026-04-15 18:46 53.44208 16.49536 817 ft 101 kts 346°
2026-04-15 18:46 53.44998 16.49224 700 ft 146 kts 343°
2026-04-15 18:46 53.45870 16.48854 657 ft 99 kts 346°
2026-04-15 18:46 53.46486 16.48617 868 ft 90 kts 348°
2026-04-15 18:47 53.46639 16.48694 675 ft 44 kts 244°
2026-04-15 18:47 53.46652 16.48590 650 ft 37 kts 266°
2026-04-15 18:47 53.46669 16.48411 696 ft 36 kts 273°
2026-04-15 18:47 53.46818 16.47932 675 ft 52 kts 294°
2026-04-15 18:48 53.46917 16.47202 667 ft 81 kts 257°
2026-04-15 18:48 53.46713 16.46283 739 ft 85 kts 283°
2026-04-15 18:48 53.47143 16.46149 849 ft 69 kts 49°
2026-04-15 18:48 53.47071 16.46010 644 ft 51 kts 190°
2026-04-15 18:49 53.46651 16.45580 705 ft 83 kts 234°
2026-04-15 18:49 53.46724 16.44602 707 ft 93 kts 292°
2026-04-15 18:49 53.46435 16.43911 766 ft 80 kts 243°
2026-04-15 18:49 53.46775 16.43261 773 ft 90 kts 348°
2026-04-15 18:50 53.47483 16.42900 963 ft 118 kts 342°
2026-04-15 18:50 53.48108 16.42007 1161 ft 121 kts 272°
2026-04-15 18:50 53.47989 16.42133 1083 ft 57 kts 71°
2026-04-15 18:50 53.48244 16.42851 1089 ft 101 kts 36°
2026-04-15 18:51 53.48844 16.43621 956 ft 100 kts 31°
2026-04-15 18:51 53.49197 16.44299 1001 ft 65 kts 147°
2026-04-15 18:51 53.48847 16.43855 819 ft 92 kts 220°
2026-04-15 18:51 53.48287 16.43006 737 ft 119 kts 219°
2026-04-15 18:52 53.47906 16.42563 597 ft 6 kts 39°
2026-04-15 18:52 53.48065 16.42862 811 ft 71 kts 47°
2026-04-15 18:52 53.48571 16.43578 762 ft 110 kts 32°
2026-04-15 18:52 53.49228 16.44333 760 ft 87 kts 42°
2026-04-15 18:53 53.48983 16.44305 743 ft 94 kts 208°
2026-04-15 18:53 53.48319 16.43463 634 ft 129 kts 218°
2026-04-15 18:53 53.47697 16.42774 989 ft 48 kts 93°
2026-04-15 18:53 53.48030 16.43111 878 ft 87 kts 46°
2026-04-15 18:54 53.48517 16.44032 782 ft 122 kts 45°
2026-04-15 18:54 53.49105 16.44908 1058 ft 40 kts 126°
2026-04-15 18:54 53.48779 16.44523 1038 ft 96 kts 212°
2026-04-15 18:54 53.48179 16.43793 908 ft 117 kts 217°
2026-04-15 18:55 53.47545 16.42895 978 ft 90 kts 186°
2026-04-15 18:55 53.47696 16.43349 804 ft 100 kts 45°
2026-04-15 18:55 53.48190 16.44414 797 ft 127 kts 56°
2026-04-15 18:55 53.48638 16.45734 1025 ft 105 kts 98°
2026-04-15 18:56 53.48339 16.45399 1528 ft 95 kts 238°
2026-04-15 18:56 53.47805 16.44234 1114 ft 148 kts 230°
2026-04-15 18:56 53.47682 16.43332 1397 ft 74 kts
2026-04-15 18:56 53.48285 16.44092 1116 ft 129 kts 38°
2026-04-15 18:57 53.48952 16.45077 1287 ft 108 kts 91°
2026-04-15 18:57 53.48457 16.46022 1024 ft 129 kts 136°
2026-04-15 18:57 53.47672 16.45979 857 ft 93 kts 160°
2026-04-15 18:57 53.47285 16.46681 867 ft 101 kts 117°
2026-04-15 18:58 53.47131 16.47895 838 ft 110 kts 82°
2026-04-15 18:58 53.47070 16.49115 937 ft 107 kts 120°
2026-04-15 18:58 53.46352 16.49423 804 ft 109 kts 163°
2026-04-15 18:58 53.45701 16.49845 911 ft 99 kts 160°
2026-04-15 18:59 53.45060 16.50221 928 ft 92 kts 153°
2026-04-15 18:59 53.44473 16.50565 983 ft 87 kts 159°
2026-04-15 18:59 53.43992 16.50181 797 ft 79 kts 256°
2026-04-15 18:59 53.44146 16.49591 572 ft 50 kts 322°
2026-04-15 19:00 53.44408 16.49443 448 ft 26 kts 341°
2026-04-15 19:00 53.44607 16.49360 428 ft 35 kts 342°
2026-04-15 19:00 53.44751 16.49304 405 ft 9 kts 345°
2026-04-15 19:00 53.44782 16.49292 406 ft 1 kts 346°
2026-04-15 19:01 53.44783 16.49292 406 ft 0 kts 346°